#Suomenkielisen Wikipedian muokkausmäärät tammikuussa. 
#Perustuu pages-meta-history.xml.7z -tiedostosta johdettuihin lukuihin.
#http://download.wikimedia.org/fiwiki/20100201/ 
#Formaatti: Muokkauksia tunnissa;YmdH (vuosi kuukausi päivä tunti)
#
197;2010010100
107;2010010101
88;2010010102
103;2010010103
74;2010010104
79;2010010105
63;2010010106
61;2010010107
103;2010010108
190;2010010109
248;2010010110
331;2010010111
286;2010010112
263;2010010113
259;2010010114
290;2010010115
294;2010010116
252;2010010117
245;2010010118
365;2010010119
385;2010010120
280;2010010121
220;2010010122
231;2010010123
157;2010010200
133;2010010201
118;2010010202
121;2010010203
72;2010010204
89;2010010205
128;2010010206
142;2010010207
154;2010010208
245;2010010209
199;2010010210
164;2010010211
208;2010010212
240;2010010213
285;2010010214
296;2010010215
249;2010010216
279;2010010217
258;2010010218
289;2010010219
442;2010010220
291;2010010221
345;2010010222
291;2010010223
221;2010010300
140;2010010301
101;2010010302
93;2010010303
86;2010010304
97;2010010305
103;2010010306
90;2010010307
133;2010010308
163;2010010309
291;2010010310
324;2010010311
332;2010010312
426;2010010313
323;2010010314
384;2010010315
272;2010010316
388;2010010317
345;2010010318
209;2010010319
208;2010010320
204;2010010321
207;2010010322
170;2010010323
212;2010010400
100;2010010401
102;2010010402
80;2010010403
53;2010010404
90;2010010405
111;2010010406
136;2010010407
114;2010010408
203;2010010409
197;2010010410
243;2010010411
212;2010010412
203;2010010413
161;2010010414
230;2010010415
318;2010010416
305;2010010417
387;2010010418
352;2010010419
393;2010010420
268;2010010421
260;2010010422
308;2010010423
174;2010010500
94;2010010501
113;2010010502
76;2010010503
51;2010010504
54;2010010505
127;2010010506
165;2010010507
180;2010010508
214;2010010509
241;2010010510
280;2010010511
284;2010010512
251;2010010513
296;2010010514
272;2010010515
254;2010010516
317;2010010517
318;2010010518
405;2010010519
370;2010010520
243;2010010521
153;2010010522
161;2010010523
178;2010010600
165;2010010601
106;2010010602
74;2010010603
59;2010010604
51;2010010605
54;2010010606
62;2010010607
159;2010010608
219;2010010609
202;2010010610
232;2010010611
284;2010010612
280;2010010613
224;2010010614
395;2010010615
314;2010010616
330;2010010617
340;2010010618
259;2010010619
281;2010010620
282;2010010621
214;2010010622
172;2010010623
115;2010010700
87;2010010701
81;2010010702
70;2010010703
71;2010010704
92;2010010705
119;2010010706
142;2010010707
156;2010010708
235;2010010709
313;2010010710
243;2010010711
236;2010010712
220;2010010713
278;2010010714
294;2010010715
365;2010010716
416;2010010717
234;2010010718
340;2010010719
329;2010010720
317;2010010721
152;2010010722
156;2010010723
86;2010010800
72;2010010801
76;2010010802
59;2010010803
47;2010010804
114;2010010805
81;2010010806
144;2010010807
145;2010010808
252;2010010809
229;2010010810
259;2010010811
356;2010010812
282;2010010813
218;2010010814
268;2010010815
243;2010010816
276;2010010817
219;2010010818
273;2010010819
273;2010010820
229;2010010821
180;2010010822
146;2010010823
86;2010010900
76;2010010901
75;2010010902
57;2010010903
43;2010010904
74;2010010905
109;2010010906
97;2010010907
124;2010010908
199;2010010909
214;2010010910
222;2010010911
277;2010010912
442;2010010913
466;2010010914
310;2010010915
311;2010010916
361;2010010917
335;2010010918
421;2010010919
387;2010010920
302;2010010921
255;2010010922
262;2010010923
149;2010011000
110;2010011001
86;2010011002
104;2010011003
89;2010011004
294;2010011005
303;2010011006
66;2010011007
196;2010011008
214;2010011009
225;2010011010
259;2010011011
280;2010011012
340;2010011013
330;2010011014
450;2010011015
308;2010011016
285;2010011017
393;2010011018
275;2010011019
270;2010011020
279;2010011021
190;2010011022
139;2010011023
90;2010011100
44;2010011101
45;2010011102
60;2010011103
66;2010011104
117;2010011105
160;2010011106
219;2010011107
171;2010011108
257;2010011109
246;2010011110
201;2010011111
267;2010011112
290;2010011113
102;2010011114
114;2010011115
289;2010011116
302;2010011117
356;2010011118
329;2010011119
344;2010011120
356;2010011121
225;2010011122
160;2010011123
129;2010011200
70;2010011201
67;2010011202
58;2010011203
64;2010011204
81;2010011205
129;2010011206
190;2010011207
189;2010011208
240;2010011209
256;2010011210
278;2010011211
207;2010011212
232;2010011213
315;2010011214
328;2010011215
340;2010011216
296;2010011217
269;2010011218
288;2010011219
279;2010011220
287;2010011221
166;2010011222
159;2010011223
88;2010011300
81;2010011301
58;2010011302
72;2010011303
81;2010011304
77;2010011305
64;2010011306
166;2010011307
151;2010011308
214;2010011309
175;2010011310
180;2010011311
263;2010011312
273;2010011313
269;2010011314
298;2010011315
317;2010011316
320;2010011317
351;2010011318
220;2010011319
305;2010011320
218;2010011321
158;2010011322
222;2010011323
133;2010011400
56;2010011401
52;2010011402
52;2010011403
34;2010011404
70;2010011405
225;2010011406
147;2010011407
180;2010011408
208;2010011409
172;2010011410
218;2010011411
177;2010011412
225;2010011413
392;2010011414
297;2010011415
286;2010011416
262;2010011417
291;2010011418
254;2010011419
309;2010011420
313;2010011421
238;2010011422
149;2010011423
137;2010011500
72;2010011501
87;2010011502
97;2010011503
74;2010011504
108;2010011505
123;2010011506
199;2010011507
206;2010011508
246;2010011509
310;2010011510
288;2010011511
290;2010011512
239;2010011513
265;2010011514
235;2010011515
215;2010011516
205;2010011517
243;2010011518
230;2010011519
255;2010011520
265;2010011521
155;2010011522
118;2010011523
64;2010011600
64;2010011601
64;2010011602
44;2010011603
22;2010011604
268;2010011605
65;2010011606
56;2010011607
108;2010011608
143;2010011609
181;2010011610
186;2010011611
315;2010011612
264;2010011613
201;2010011614
244;2010011615
249;2010011616
283;2010011617
287;2010011618
278;2010011619
276;2010011620
271;2010011621
219;2010011622
269;2010011623
164;2010011700
127;2010011701
86;2010011702
82;2010011703
79;2010011704
132;2010011705
175;2010011706
71;2010011707
150;2010011708
225;2010011709
213;2010011710
397;2010011711
273;2010011712
304;2010011713
248;2010011714
305;2010011715
294;2010011716
344;2010011717
265;2010011718
212;2010011719
312;2010011720
251;2010011721
202;2010011722
163;2010011723
131;2010011800
84;2010011801
61;2010011802
64;2010011803
31;2010011804
93;2010011805
282;2010011806
357;2010011807
234;2010011808
200;2010011809
233;2010011810
213;2010011811
357;2010011812
432;2010011813
291;2010011814
330;2010011815
272;2010011816
252;2010011817
306;2010011818
215;2010011819
227;2010011820
235;2010011821
171;2010011822
120;2010011823
66;2010011900
90;2010011901
78;2010011902
44;2010011903
57;2010011904
51;2010011905
79;2010011906
142;2010011907
215;2010011908
239;2010011909
259;2010011910
236;2010011911
230;2010011912
206;2010011913
227;2010011914
260;2010011915
215;2010011916
291;2010011917
249;2010011918
232;2010011919
256;2010011920
224;2010011921
155;2010011922
184;2010011923
111;2010012000
95;2010012001
69;2010012002
54;2010012003
56;2010012004
68;2010012005
115;2010012006
133;2010012007
179;2010012008
189;2010012009
226;2010012010
235;2010012011
285;2010012012
327;2010012013
218;2010012014
237;2010012015
212;2010012016
195;2010012017
250;2010012018
299;2010012019
339;2010012020
221;2010012021
157;2010012022
100;2010012023
102;2010012100
82;2010012101
79;2010012102
69;2010012103
70;2010012104
95;2010012105
76;2010012106
181;2010012107
166;2010012108
189;2010012109
215;2010012110
253;2010012111
214;2010012112
223;2010012113
338;2010012114
257;2010012115
310;2010012116
234;2010012117
238;2010012118
234;2010012119
225;2010012120
156;2010012121
188;2010012122
112;2010012123
152;2010012200
102;2010012201
80;2010012202
51;2010012203
117;2010012204
77;2010012205
157;2010012206
174;2010012207
200;2010012208
225;2010012209
325;2010012210
234;2010012211
258;2010012212
267;2010012213
259;2010012214
280;2010012215
226;2010012216
237;2010012217
230;2010012218
203;2010012219
257;2010012220
214;2010012221
157;2010012222
124;2010012223
114;2010012300
92;2010012301
82;2010012302
64;2010012303
46;2010012304
39;2010012305
60;2010012306
81;2010012307
148;2010012308
247;2010012309
245;2010012310
296;2010012311
215;2010012312
298;2010012313
418;2010012314
328;2010012315
282;2010012316
381;2010012317
304;2010012318
331;2010012319
265;2010012320
254;2010012321
254;2010012322
183;2010012323
145;2010012400
110;2010012401
83;2010012402
74;2010012403
63;2010012404
75;2010012405
105;2010012406
124;2010012407
171;2010012408
201;2010012409
305;2010012410
320;2010012411
337;2010012412
247;2010012413
313;2010012414
229;2010012415
326;2010012416
407;2010012417
322;2010012418
275;2010012419
237;2010012420
213;2010012421
195;2010012422
128;2010012423
83;2010012500
61;2010012501
78;2010012502
80;2010012503
97;2010012504
72;2010012505
129;2010012506
121;2010012507
158;2010012508
189;2010012509
191;2010012510
185;2010012511
191;2010012512
243;2010012513
251;2010012514
332;2010012515
248;2010012516
341;2010012517
255;2010012518
263;2010012519
247;2010012520
174;2010012521
170;2010012522
124;2010012523
93;2010012600
65;2010012601
114;2010012602
55;2010012603
96;2010012604
98;2010012605
78;2010012606
126;2010012607
172;2010012608
203;2010012609
185;2010012610
298;2010012611
253;2010012612
310;2010012613
293;2010012614
281;2010012615
281;2010012616
285;2010012617
303;2010012618
293;2010012619
227;2010012620
151;2010012621
192;2010012622
127;2010012623
76;2010012700
75;2010012701
43;2010012702
41;2010012703
57;2010012704
67;2010012705
89;2010012706
172;2010012707
176;2010012708
195;2010012709
202;2010012710
160;2010012711
248;2010012712
290;2010012713
353;2010012714
414;2010012715
394;2010012716
446;2010012717
211;2010012718
319;2010012719
249;2010012720
246;2010012721
130;2010012722
147;2010012723
81;2010012800
73;2010012801
86;2010012802
68;2010012803
41;2010012804
64;2010012805
134;2010012806
120;2010012807
178;2010012808
155;2010012809
259;2010012810
227;2010012811
235;2010012812
316;2010012813
307;2010012814
320;2010012815
383;2010012816
279;2010012817
280;2010012818
193;2010012819
332;2010012820
227;2010012821
169;2010012822
255;2010012823
98;2010012900
66;2010012901
96;2010012902
35;2010012903
52;2010012904
45;2010012905
59;2010012906
152;2010012907
230;2010012908
149;2010012909
201;2010012910
262;2010012911
297;2010012912
386;2010012913
297;2010012914
266;2010012915
305;2010012916
358;2010012917
409;2010012918
407;2010012919
335;2010012920
237;2010012921
177;2010012922
185;2010012923
85;2010013000
55;2010013001
13;2010013002
51;2010013003
58;2010013004
68;2010013005
101;2010013006
176;2010013007
295;2010013008
319;2010013009
219;2010013010
269;2010013011
294;2010013012
261;2010013013
264;2010013014
273;2010013015
239;2010013016
224;2010013017
236;2010013018
237;2010013019
283;2010013020
206;2010013021
225;2010013022
149;2010013023
129;2010013100
62;2010013101
83;2010013102
111;2010013103
85;2010013104
98;2010013105
84;2010013106
124;2010013107
155;2010013108
148;2010013109
262;2010013110
296;2010013111
344;2010013112
301;2010013113
281;2010013114
356;2010013115
289;2010013116
341;2010013117
312;2010013118
298;2010013119
273;2010013120
247;2010013121
165;2010013122
119;2010013123
